Hourly Data Report for December 17, 2018

TORONTO CITY
ONTARIO
Current Station Operator: ECCC - MSC

43°40'00.000" N
79°24'00.000" W
112.50 m
6158355
71508
XTO

Download Data

Hourly Data (December 2018)
Hourly Data Report for December 17, 2018
TIME
LST
Temp Definition
°C
Dew Point Definition
°C
Rel Hum Definition
%
Precip. Amount Definition
mm

Wind Dir Definition
10's deg

Wind Spd Definition
km/h
Visibility Definition
km
Stn Press Definition
kPa
Hmdx Definition


Wind Chill Definition


Weather Definition


00:00 2.5 0.5 86 0.0 LegendMM LegendMM   99.68     LegendNANA
01:00 2.5 0.2 85 0.0 LegendMM LegendMM   99.60     LegendNANA
02:00 2.1 -0.3 85 0.0 LegendMM LegendMM   99.51     LegendNANA
03:00 2.2 -0.5 82 0.0 LegendMM LegendMM   99.51     LegendNANA
04:00 2.5 -0.8 79 0.0 LegendMM LegendMM   99.51     LegendNANA
05:00 2.1 -1.0 80 0.0 LegendMM LegendMM   99.48     LegendNANA
06:00 1.8 -0.9 82 0.0 LegendMM LegendMM   99.47     LegendNANA
07:00 2.5 -0.7 80 0.0 LegendMM LegendMM   99.52     LegendNANA
08:00 2.7 -1.0 77 0.0 LegendMM LegendMM   99.55     LegendNANA
09:00 3.0 -1.0 75 0.0 LegendMM LegendMM   99.62     LegendNANA
10:00 3.5 -2.1 67 0.0 LegendMM LegendMM   99.66     LegendNANA
11:00
12:00 3.4 -3.9 59 0.0 LegendMM LegendMM   99.74     LegendNANA
13:00 3.2 -4.4 57 0.0 LegendMM LegendMM   99.71     LegendNANA
14:00 3.1 -4.4 58 0.0 LegendMM LegendMM   99.72     LegendNANA
15:00 3.1 -4.9 56 0.0 LegendMM LegendMM   99.80     LegendNANA
16:00 3.1 -5.6 53 0.0 LegendMM LegendMM   99.89     LegendNANA
17:00 2.8 -6.7 50 0.0 LegendMM LegendMM   99.98     LegendNANA
18:00 2.3 -6.0 54 0.0 LegendMM LegendMM   100.07     LegendNANA
19:00 1.3 -4.7 64 0.0 LegendMM LegendMM   100.22     LegendNANA
20:00 0.8 -5.5 63 0.0 LegendMM LegendMM   100.29     LegendNANA
21:00 0.3 -5.6 64 0.0 LegendMM LegendMM   100.32     LegendNANA
22:00 0.3 -5.3 66 0.0 LegendMM LegendMM   100.34     LegendNANA
23:00 0.7 -5.7 62 0.0 LegendMM LegendMM   100.35     LegendNANA

Notes on Data Quality.

Legend

  • E = Estimated
  • M = Missing
  • NA = Not Available*
  • [empty] = Indicates an unobserved value
Date modified: